Weather History for Macae, Brazil

Change the Weather History Date:

Tuesday, April 1, 2014

  Actual Average Record
Temperature  
Mean Temperature 83 °F -  
Max Temperature 93 °F 79 °F 93 °F (2014)
Min Temperature 73 °F 66 °F 66 °F (2012)
Cooling Degree Days 18    
Growing Degree Days 33 (Base 50)    
Moisture  
Dew Point 75 °F    
Average Humidity 83    
Maximum Humidity 100    
Minimum Humidity 59    
Precipitation  
Precipitation 0.00 in - - ()
Sea Level Pressure  
Sea Level Pressure 29.97 in    
Wind  
Wind Speed 5 mph ()    
Max Wind Speed 12 mph    
Max Gust Speed -    
Visibility 6.2 miles    
Events Thunderstorm    
Averages and records for this station are not official NWS values.
T = Trace of Precipitation, MM = Missing Value Source: Averaged Metar Reports

Daily Weather History Graph

Daily Weather History Graph

Search for Another Location

Airport:

Trip Planner

Search our weather history database for the weather conditions in past years. The results will help you decide how hot, cold, wet, or windy it might be!

Date:

Astronomy

Apr. 01, 2014 Rise Set
Actual Time 5:55 AM BRT 5:46 PM BRT
Civil Twilight 5:32 AM BRT 6:09 PM BRT
Nautical Twilight 5:06 AM BRT 6:35 PM BRT
Astronomical Twilight 4:40 AM BRT 7:01 PM BRT
Moon 7:32 AM BRT 7:11 PM BRT
Length of Visible Light 12h 36m
Length of Day
11h 51m
Waxing Crescent, 4% of the Moon is Illuminated
Apr 1
Waxing Crescent
Apr 7
First Quarter
Apr 15
Full
Apr 22
Last Quarter
Apr 29
New

Hourly Weather History & Observations

Time (BRT) Temp. Heat Index Dew Point Humidity Pressure Visibility Wind Dir Wind Speed Gust Speed Precip Events Conditions
12:00 AM 75.2 °F - 73.4 °F 94% 30.01 in - NNE 2.3 mph - N/A   Clear
1:00 AM 77.0 °F - 75.2 °F 94% 29.98 in - East 3.5 mph - N/A   Clear
2:00 AM 75.2 °F - 73.4 °F 94% 29.98 in - ENE 5.8 mph - N/A   Clear
3:00 AM 75.2 °F - 73.4 °F 94% 29.95 in - NE 3.5 mph - N/A   Clear
4:00 AM 73.4 °F - 71.6 °F 94% 29.95 in - NE 3.5 mph - N/A   Clear
5:00 AM 73.4 °F - 71.6 °F 94% 29.95 in 6.2 mi NE 4.6 mph - N/A   Partly Cloudy
6:00 AM 73.4 °F - 73.4 °F 100% 29.98 in 6.2 mi NE 3.5 mph - N/A   Partly Cloudy
7:00 AM 86.0 °F 95.1 °F 75.2 °F 70% 29.98 in - NNE 2.3 mph - N/A   Clear
8:00 AM 89.6 °F 99.8 °F 75.2 °F 62% 29.98 in - NE 6.9 mph - N/A   Clear
9:00 AM 87.8 °F 95.6 °F 73.4 °F 62% 30.01 in - NE 9.2 mph - N/A   Clear
10:00 AM 89.6 °F 102.2 °F 77.0 °F 66% 30.01 in - East 8.1 mph - N/A   Clear
11:00 AM 93.2 °F 107.2 °F 77.0 °F 59% 29.98 in - East 9.2 mph - N/A   Clear
12:00 PM 87.8 °F 99.7 °F 77.0 °F 70% 29.95 in 6.2 mi ESE 11.5 mph - N/A   Partly Cloudy
1:00 PM 86.0 °F 96.9 °F 77.0 °F 74% 29.95 in 6.2 mi ESE 11.5 mph - N/A   Scattered Clouds
2:00 PM 89.6 °F 102.2 °F 77.0 °F 66% 29.92 in 6.2 mi East 11.5 mph - N/A   Scattered Clouds
3:00 PM 86.0 °F 95.1 °F 75.2 °F 70% 29.92 in 6.2 mi East 11.5 mph - N/A   Scattered Clouds
4:00 PM 80.6 °F 86.2 °F 75.2 °F 84% - 6.2 mi East 9.2 mph - N/A Thunderstorm Partly Cloudy
5:00 PM 78.8 °F - 75.2 °F 89% 29.92 in 6.2 mi East 10.4 mph - N/A   Partly Cloudy
7:00 PM 78.8 °F - 77.0 °F 94% 29.98 in 6.2 mi East 10.4 mph - N/A   Mostly Cloudy
8:00 PM 77.0 °F - 77.0 °F 100% 29.98 in 6.2 mi ESE 4.6 mph - N/A   Mostly Cloudy
9:00 PM 75.2 °F - 75.2 °F 100% 30.01 in 6.2 mi Calm Calm - N/A   Mostly Cloudy
10:00 PM 77.0 °F - 75.2 °F 94% 29.98 in 6.2 mi ESE 2.3 mph - N/A   Mostly Cloudy
11:00 PM 77.0 °F - 75.2 °F 94% 29.98 in 6.2 mi East 2.3 mph - N/A   Scattered Clouds